Regional Weather Roundup
Issued by NWS Upton, NY

Current Version | Previous Version | Graphics & Text | Print | Product List | Glossary Off
Versions: 1 2 3 4 5 6 7 8 9 10 11 12 13 14 15 16 17 18 19 20 21 22 23 24 25 26 27 28 29 30 31 32 33 34 35 36 37 38 39 40 41 42 43 44 45 46 47 48 49 50

975
ASUS41 KOKX 040508
RWROKX

REGIONAL WEATHER ROUNDUP
NATIONAL WEATHER SERVICE NEW YORK NY
1200 AM EST SUN DEC 04 2016

NOTE: "FAIR" INDICATES FEW OR NO CLOUDS BELOW 12,000 FEET WITH NO
SIGNIFICANT WEATHER AND/OR OBSTRUCTIONS TO VISIBILITY.

NYZ071-072-176-178-NJZ106-104-040600-
NEW YORK CITY METRO AREA

CITY           SKY/WX    TMP DP  RH WIND       PRES   REMARKS
Central Park   CLOUDY    42  24  49 VRB6G17   30.18R
Wall St Helipt CLOUDY    44  28  53 W5        30.18R
Bronx Bot Gard NOT AVBL
LaGuardia APRT MOCLDY    44  28  53 NW17G23   30.16R
Kennedy INTL   MOCLDY    44  24  45 NW16      30.17R
Breezy Point     N/A     41 N/A N/A NW12G17     N/A
Newark/Liberty CLOUDY    43  25  49 NW18      30.18R
Teterboro      CLOUDY    42  25  50 NW7       30.17R
$$

NYZ177-179-078>081-040600-
LONG ISLAND NEW YORK

CITY           SKY/WX    TMP DP  RH WIND       PRES   REMARKS
Jones Beach      N/A     43 N/A N/A NW13G18     N/A
Matinecock PT    N/A     43 N/A N/A NE8         N/A
Farmingdale    CLOUDY    42  27  55 NW10      30.15R
MacArthur/ISP  MOCLDY    40  28  62 N9        30.14R WCI  34
Shirley        PTCLDY    39  27  62 NW14      30.14S WCI  31
Westhampton    CLOUDY    40  24  53 NW12      30.14S WCI  33
Southampton    NOT AVBL
Bridgehampton  NOT AVBL
East Hampton   CLOUDY    39  22  50 N10G22    30.12R WCI  32
Montauk          N/A     40  24  53 NW13G21   30.12R WCI  32
$$

NYZ052-065-067-040600-
HUDSON VALLEY

CITY           SKY/WX    TMP DP  RH WIND       PRES   REMARKS
White Plains   CLOUDY    38  27  64 CALM      30.13R
Newburgh       CLOUDY    39  27  60 NW12G23   30.14S WCI  32
Montgomery     MOCLDY    40  25  55 NW14      30.14R WCI  32
Poughkeepsie   CLOUDY    36  26  67 N5        30.15R WCI  32
Albany         MOCLDY    35  23  61 N6        30.15R WCI  30
$$

NJZ001-105-106-008-010-013-015-019>022-104-040600-
NEW JERSEY

CITY           SKY/WX    TMP DP  RH WIND       PRES   REMARKS
Newark/Liberty CLOUDY    43  25  49 NW18      30.18R
Teterboro      CLOUDY    42  25  50 NW7       30.17R
Caldwell       CLOUDY    42  24  49 NW8G17    30.18R
Somerville     CLOUDY    43  24  47 NW14G23   30.17R
Linden         CLOUDY    42  25  50 NW13      30.19R
Sussex         CLOUDY    40  25  55 NW8       30.17R WCI  34
Andover          N/A     39  23  52 N8G22     30.18R WCI  33
Trenton        CLOUDY    44  25  47 NW7       30.19R
Millville      CLOUDY    45  32  60 NW13      30.21R
Atlantic City  CLOUDY    44  30  57 W6        30.19S
Wrightstown    NOT AVBL
Toms River     CLOUDY    44  27  51 NW7       30.19R
Belmar         CLOUDY   N/A N/A N/A NW15      30.18R
$$

PAZ047>061-062-071-040600-
EASTERN PENNSYLVANIA

CITY           SKY/WX    TMP DP  RH WIND       PRES   REMARKS
Philadelphia   MOCLDY    46  29  51 NW10      30.21R
Allentown      CLOUDY    43  25  49 NW7       30.20R
Scranton       CLOUDY    38  24  57 N14G24    30.18R WCI  30
$$

CTZ002-004>006-009-010-012-RIZ004-006-007-MAZ004-011-015-040600-
SOUTHERN NEW ENGLAND
 IN CT

CITY           SKY/WX    TMP DP  RH WIND       PRES   REMARKS
Bradley INTL   MOCLDY    34  20  56 NW5       30.12R WCI  30
Hartford       CLOUDY    37  21  52 NW9       30.14R WCI  30
Danbury        CLOUDY    36  25  64 N9        30.15  WCI  29
Wtrbury/Oxford CLOUDY    36  19  51 N17G30    30.13S WCI  25
Bridgeport     CLOUDY    41  25  53 NW14      30.14S
Meriden        CLOUDY    40  20  44 NW8       30.13S WCI  34
New Haven      MOCLDY    39  23  52 NW13      30.14R WCI  31
Chester          N/A     37  19  48 N9        30.11S WCI  31
Groton         PTCLDY    40  23  50 NW12      30.12R WCI  33
Wilimantic     CLEAR     36  21  54 W6        30.12R WCI  31

 IN RI

CITY           SKY/WX    TMP DP  RH WIND       PRES   REMARKS
Providence     PTCLDY    34  22  61 W8        30.09R WCI  27
Block Island   CLEAR     38  24  57 NW15G25   30.10R WCI  29
Westerly       CLEAR     36  21  54 NW5       30.12R WCI  32
 IN MA

CITY           SKY/WX    TMP DP  RH WIND       PRES   REMARKS
Boston         PTCLDY    35  24  64 NW13      30.07R WCI  26
Worcester      CLEAR     29  21  72 NW9       30.04R WCI  20
Westfield      MOCLDY    32  21  64 NW3       30.11R
Provincetown   MOCLDY    39  27  62 N22G30    30.03R WCI  29
Nantucket      CLEAR     38  25  59 NW21G30   30.02R WCI  28
$$

ANZ330-335-338-340-345-350-353-355-040600-
COASTAL MARINE OBSERVATIONS


STATION/POSITION TIME  SKY/WX   TEMP    WIND        PRES    VSBY  WAVE
                                AIR SEA DIR/SP/G                  HT/PER
                 (UTC)          (F)     (DEG/KT/KT) (MB)    (MI)  (FT/S)
NY HARB ENTRANCE 0450            45 54  320/ 21/ 27 1020.6          4/ 5
20 S FIRE ISLAND 0450            44 53  340/ 16/ 21 1020.5          4/ 5
GREAT SOUTH BAY  0415            42 44                N/A
23 SSW MONTAUK P 0450            42 55  320/ 21/ 27 1019.7          5/ 5
15 E BARNEGAT LI 0430               54                N/A           4/ 5
HUDSON CANYON    0350            48 58              1019.4          9/ 8
KINGS POINT      0442            43 48              1020.9
EXECUTION ROCKS  0445            44     290/ 12/ 16   N/A
CENTRAL LI SOUND 0415            42 51  330/ 23/ 31   N/A           2/ 4
EASTERN LI SOUND NOT AVBL
ROBBINS REEF     0442            43     320/ 17/ 24 1021.7
$$


>>>>>>>>>>>>>>>>>>>>>>>>>>>> KEY <<<<<<<<<<<<<<<<<<<<<<<<<<<
>                                                          <
>     SKY/WX - Sky Condition/Present Weather               <
>     TMP    - Temperature in Fahrenheit                   <
>     DP     - Dew Point in Fahrenheit                     <
>     RH     - Relative Humidity in Percent                <
>     WIND   - Direction (from) and Speed in MPH           <
>     PRES   - Mean Sea Level Pressure (inches of Hg)      <
>     WCI    - Wind Chill Index                            <
>     VSB    - VISIBILITY IN MILES                         <
>     HX     - HEAT INDEX                                  <
>     TC     - TEMPERATURE IN CELSIUS                      <
>     VRB    - VARIABLE WIND DIRECTION                     <
>                                                          <
>>>>>>>>>>>>>>>>>>>>>>>>>>>> KEY <<<<<<<<<<<<<<<<<<<<<<<<<<<




USA.gov is the U.S. government's official web portal to all federal, state and local government web resources and services.